Вернуться в каталог

THORAD AGENA D DEB

АктивенLEO
NORAD 4990·DEBRIS·🇺🇸 United States

Запущен Apr 8, 1970 с Vandenberg Space Force Base

Loading…

Ближайшие Пролёты

TLE

Source: Space-Track
1 04990U 70025HL  26218.94752403  .00000776  00000-0  50874-3 0  9996
2 04990 100.0129   7.7691 0049722 292.1602  67.4289 14.05072006827573

Отслеживайте THORAD AGENA D DEB в реальном времени с AllMySat

Download on the App Store